TimeCST,TemperatureF,Dew PointF,Humidity,Sea Level PressureIn,VisibilityMPH,Wind Direction,Wind SpeedMPH,Gust SpeedMPH,PrecipitationIn,Events,Conditions,WindDirDegrees,DateUTC
12:00 AM,69.8,60.8,73,29.99,-9999.0,ESE,16.1,-,N/A,,Clear,110,2005-01-01 06:00:00
3:00 AM,68,61,71,29.83,12,NE,9.2,,,,,40,2005-01-01 09:00:00
4:00 AM,68.0,60.8,78,29.96,-9999.0,ENE,6.9,-,N/A,,Clear,60,2005-01-01 10:00:00
5:00 AM,68.0,60.8,78,29.97,-9999.0,East,3.5,-,N/A,,Clear,80,2005-01-01 11:00:00
6:00 AM,65,60,78,29.89,12,NNE,6.9,,,,Scattered Clouds,30,2005-01-01 12:00:00
6:00 AM,66.2,59.0,78,29.99,6.2,NNE,6.9,-,N/A,,Partly Cloudy,30,2005-01-01 12:00:00
7:00 AM,69.8,60.8,73,30.01,6.2,ESE,12.7,-,N/A,,Partly Cloudy,110,2005-01-01 13:00:00
8:00 AM,73.4,62.6,69,30.03,6.2,ESE,16.1,-,N/A,,Partly Cloudy,110,2005-01-01 14:00:00
9:00 AM,77,61,48,29.90,12,ESE,17.3,,,,Scattered Clouds,110,2005-01-01 15:00:00
9:00 AM,77.0,60.8,57,30.03,6.2,ESE,17.3,-,N/A,,Partly Cloudy,110,2005-01-01 15:00:00
10:00 AM,80.6,60.8,51,30.03,6.2,ESE,17.3,-,N/A,,Partly Cloudy,110,2005-01-01 16:00:00
11:00 AM,82.4,59.0,45,30.02,6.2,East,16.1,-,N/A,,Partly Cloudy,100,2005-01-01 17:00:00
12:00 PM,81,60,39,29.87,12,East,13.8,,,,Partly Cloudy,80,2005-01-01 18:00:00
12:00 PM,80.6,60.8,51,30.01,6.2,East,13.8,-,N/A,,Scattered Clouds,80,2005-01-01 18:00:00
1:00 PM,80.6,60.8,51,29.97,6.2,East,13.8,-,N/A,,Scattered Clouds,100,2005-01-01 19:00:00
2:00 PM,80.6,60.8,51,29.95,6.2,East,18.4,-,N/A,,Partly Cloudy,90,2005-01-01 20:00:00
3:00 PM,82,59,36,29.80,12,East,18.4,,,,Scattered Clouds,80,2005-01-01 21:00:00
3:00 PM,82.4,59.0,45,29.94,6.2,East,18.4,-,N/A,,Partly Cloudy,80,2005-01-01 21:00:00
4:00 PM,75.2,60.8,61,29.95,6.2,East,18.4,-,N/A,,Partly Cloudy,90,2005-01-01 22:00:00
5:00 PM,75.2,59.0,57,29.95,6.2,East,16.1,-,N/A,,Partly Cloudy,80,2005-01-01 23:00:00
6:00 PM,72,58,53,29.86,12,East,13.8,,,,Scattered Clouds,100,2005-01-02 00:00:00
6:00 PM,71.6,59.0,64,29.97,6.2,ESE,13.8,-,N/A,,Partly Cloudy,110,2005-01-02 00:00:00
7:00 PM,69.8,60.8,73,29.99,-9999.0,East,6.9,-,N/A,,Clear,80,2005-01-02 01:00:00
8:00 PM,69.8,59.0,68,30.01,-9999.0,ENE,10.4,-,N/A,,Clear,60,2005-01-02 02:00:00
9:00 PM,69,61,68,,12,ENE,6.9,,,,,60,2005-01-02 03:00:00
9:00 PM,69.8,60.8,73,30.02,-9999.0,ENE,6.9,-,N/A,,Clear,60,2005-01-02 03:00:00
10:00 PM,69.8,60.8,73,30.01,-9999.0,East,13.8,-,N/A,,Clear,100,2005-01-02 04:00:00